Regional Weather Roundup
Issued by NWS

Home | Current Version | Previous Version | Graphics & Text | Print | Product List | Glossary On
Versions: 1 2 3 4 5 6 7 8 9 10 11 12 13 14 15 16 17 18 19 20 21 22 23 24 25 26 27 28 29 30 31 32 33 34 35 36 37 38 39 40 41 42 43 44 45 46 47 48 49 50
000
ASUS43 KLMK 220610
RWRKY
KENTUCKY REGIONAL WEATHER ROUNDUP
NATIONAL WEATHER SERVICE LOUISVILLE KY
200 AM EDT SUN OCT 22 2017

NOTE "FAIR" INDICATES FEW OR NO CLOUDS BELOW 12,000 FEET
WITH NO SIGNIFICANT WEATHER AND/OR OBSTRUCTIONS TO VISIBILITY.

KYZ001>023-026-027-061>063-070>075-220700-
WESTERN AND SOUTH CENTRAL KENTUCKY

CITY           SKY/WX    TMP DP  RH WIND       PRES   REMARKS
PADUCAH        MOCLDY    70  59  68 S10G18    30.06R
HENDERSON      PTCLDY    64  58  80 S9        30.10S
OWENSBORO      CLOUDY    63  54  72 SE9       30.12F
HOPKINSVILLE   PTCLDY    64  56  75 SE6       30.12S
BOWLING GREEN  PTCLDY    58  53  84 CALM      30.15F
GLASGOW        PTCLDY    63  49  60 S5        30.17F
$$

KYZ024-025-028>034-038-045-046-053-220700-
NORTH CENTRAL KENTUCKY

CITY           SKY/WX    TMP DP  RH WIND       PRES   REMARKS
LOUISVILLE/SDF PTCLDY    59  50  72 SE8       30.16S
LOUISVILLE/LOU PTCLDY    60  51  72 SE3       30.17S
FORT KNOX      PTCLDY    59  49  68 S7        30.15S
$$

KYZ035>037-039>044-047>052-055>060-089>105-220700-
NORTHEAST KENTUCKY

CITY           SKY/WX    TMP DP  RH WIND       PRES   REMARKS
LEXINGTON      MOCLDY    60  48  64 SE7       30.21S
COVINGTON      PTCLDY    57  49  74 S8        30.18F
FRANKFORT      MOCLDY    54  48  80 CALM      30.19S
$$

KYZ054-064>069-076>088-106>120-220700-
SOUTHEAST KENTUCKY

CITY           SKY/WX    TMP DP  RH WIND       PRES   REMARKS
JACKSON        PTCLDY    60  48  64 CALM      30.22F
LONDON         MOCLDY    50  48  93 CALM      30.24R
SOMERSET       MOCLDY    50  50 100 CALM      30.24F
MIDDLESBORO    PTCLDY    50  50 100 CALM      30.27R
MONTICELLO     PTCLDY    58  49  72 NE7       30.24S
$$




USA.gov is the U.S. government's official web portal to all federal, state and local government web resources and services.